User: anonymous   Login
Location: Unspecified
(0.0000°N, 0.0000°E)
Time: 00:09:17
(UTC+00:00)
Language:

APRIZESAT 7 - Orbit

View from above orbital plane
View from above orbital plane
View from above satellite
View from above satellite

Ground track
Ground track

The orbit data is extracted from the following two-line orbital elements,

1 39416U 13066A   21023.52396982  .00000113  00000-0  19522-4 0  9999
2 39416  97.5314  25.9293 0039819 237.4647 122.2719 14.84030164388405
Epoch (UTC): 23 January 2021 12:34:30
Eccentricity: 0.0039819
inclination: 97.5314°
perigee height: 589 km
apogee height: 644 km
right ascension of ascending node: 25.9293°
argument of perigee: 237.4647°
revolutions per day: 14.84030164
mean anomaly at epoch: 122.2719°
orbit number at epoch: 38840

The dashed part of the orbit path shows where the satellite is in the earth's shadow,  

DLR